[[{"header":{"parameterUnit":"m.s-1","parameterCategory":1,"la1":30.2992,"la2":30.254,"lo1":-89.0895,"lo2":-89.0443,"dy":0.0025,"dx":0.0025,"nx":19,"ny":19,"refTime":"2026-05-08T21:00:00:Z","depth":0,"parameterNumber":2,"parameterNumberName":"U-component_of_WINDS"},"data":[0,0,0,-1.1142,-1.1143,-1.1186,-1.1186,-1.1248,-1.1248,0,0,0,0,0,0,0,0,0,0,0,-1.113,-1.113,-1.1142,-1.1143,-1.1186,-1.1186,-1.1248,-1.1248,0,0,0,0,0,0,0,0,0,0,0,-1.113,-1.113,-1.1131,-1.1143,-1.1186,-1.1186,-1.1248,-1.1214,0,0,0,0,0,0,0,0,0,0,-1.1171,-1.1159,-1.113,-1.1131,-1.1143,-1.1186,-1.1186,-1.1212,-1.1216,-1.123,0,-1.124,0,-1.1245,-1.1253,-1.1253,0,0,0,-1.1143,-1.1156,-1.1167,-1.1131,-1.1144,-1.1186,-1.1167,-1.1214,-1.1218,-1.1235,-1.1241,-1.1243,-1.1246,-1.1253,-1.1253,-1.1328,-1.1328,0,0,-1.1141,-1.1139,-1.1164,-1.117,-1.116,-1.1165,-1.1168,-1.1216,-1.1224,-1.1241,-1.1245,-1.1247,-1.1254,-1.1254,-1.1328,-1.1328,0,0,0,-1.1134,-1.1137,-1.1146,-1.1167,-1.1174,-1.1167,-1.117,-1.1222,-1.1225,-1.1245,-1.1248,-1.1254,-1.1255,-1.1327,-1.1328,-1.1341,0,0,0,-1.1132,-1.1133,-1.1145,-1.1145,-1.1174,-1.1198,-1.1174,-1.1222,-1.1227,-1.1248,-1.1254,-1.1255,-1.1327,-1.1328,-1.134,-1.1347,0,0,0,-1.1127,-1.1132,-1.1138,-1.1144,-1.1163,-1.1197,-1.1203,-1.1223,-1.1229,-1.1253,-1.1255,-1.1327,-1.1328,-1.1339,-1.1346,-1.1366,0,0,0,-1.1121,-1.1151,-1.1139,-1.1173,-1.1162,-1.1204,-1.1203,-1.1235,-1.1257,-1.1254,-1.1327,-1.1328,-1.1338,-1.1345,-1.1365,-1.1382,-1.1388,0,0,-1.1157,-1.1155,-1.1176,-1.1166,-1.1209,-1.1198,-1.1244,-1.1268,-1.1274,-1.1311,-1.1313,-1.134,-1.1346,-1.1366,-1.1429,-1.1434,0,0,0,-1.1186,-1.1201,-1.1213,-1.1233,-1.125,-1.1266,-1.1283,-1.1292,-1.1323,-1.1291,-1.1353,-1.1357,-1.1369,-1.1377,-1.1381,-1.1392,-1.1332,-1.1332,-1.1332,-1.1235,-1.1239,-1.1273,-1.1282,-1.1302,-1.1319,-1.1336,-1.1351,-1.1352,-1.1366,-1.1377,-1.1414,-1.1424,-1.1427,-1.1438,-1.1387,-1.1387,-1.1387,-1.1387,-1.1288,-1.1309,-1.1307,-1.1339,-1.1345,-1.1373,-1.1392,-1.1391,-1.142,-1.1407,-1.1418,-1.1402,-1.1433,-1.1443,-1.1388,-1.1388,-1.1388,-1.1387,-1.1387,-1.1319,-1.133,-1.1339,-1.1368,-1.1391,-1.1401,-1.1428,-1.1433,-1.1438,-1.1449,-1.146,-1.146,-1.146,-1.1454,-1.1454,-1.1454,-1.1454,-1.1454,-1.1454,-1.1348,-1.1358,-1.1378,-1.1399,-1.1413,-1.1431,-1.1449,-1.1464,-1.1481,-1.1483,-1.1483,-1.1482,-1.1435,-1.1422,-1.1456,-1.1456,-1.1456,-1.1456,-1.1455,-1.1399,-1.1388,-1.142,-1.1433,-1.1458,-1.1481,-1.1487,-1.1516,-1.1529,-1.1543,-1.154,-1.1504,-1.1503,-1.1499,-1.1489,-1.1538,-1.1538,-1.1538,-1.1538,-1.1425,-1.1424,-1.1457,-1.1478,-1.15,-1.1508,-1.1547,-1.1562,-1.1577,-1.1586,-1.158,-1.1567,-1.1563,-1.1564,-1.1559,-1.155,-1.1614,-1.1614,-1.1614,-1.1456,-1.1458,-1.1488,-1.1499,-1.152,-1.1538,-1.1575,-1.1602,-1.1617,-1.1617,-1.1593,-1.159,-1.1569,-1.1562,-1.1561,-1.1553,-1.1536,0,0]},{"header":{"parameterUnit":"m.s-1","parameterCategory":1,"la1":30.2992,"la2":30.254,"lo1":-89.0895,"lo2":-89.0443,"dy":0.0025,"dx":0.0025,"nx":19,"ny":19,"refTime":"2026-05-08T21:00:00:Z","depth":0,"parameterNumber":3,"parameterNumberName":"V-component_of_WINDS"},"data":[0,0,0,1.0584,1.0582,1.0463,1.0463,1.0319,1.0317,0,0,0,0,0,0,0,0,0,0,0,1.0626,1.0626,1.0584,1.0582,1.0464,1.0463,1.0319,1.0317,0,0,0,0,0,0,0,0,0,0,0,1.0627,1.0626,1.0625,1.0581,1.0464,1.0463,1.0319,1.0405,0,0,0,0,0,0,0,0,0,0,1.0519,1.0565,1.0626,1.0625,1.0581,1.0464,1.0463,1.0409,1.04,1.0376,0,1.0359,0,1.0336,1.0309,1.0308,0,0,0,1.0576,1.0573,1.0535,1.0625,1.058,1.0464,1.0515,1.0404,1.0393,1.0364,1.0357,1.0352,1.0334,1.0308,1.0307,1.0197,1.0197,0,0,1.0582,1.0608,1.0542,1.0529,1.055,1.0519,1.0512,1.0397,1.0391,1.0357,1.0348,1.0332,1.0307,1.0306,1.0197,1.0197,0,0,0,1.0605,1.0613,1.0577,1.0535,1.0513,1.0516,1.0507,1.0396,1.0382,1.0346,1.033,1.0306,1.0304,1.0197,1.0197,1.0212,0,0,0,1.0609,1.0626,1.0581,1.0595,1.0516,1.0453,1.0508,1.039,1.0377,1.0331,1.0306,1.0303,1.0198,1.0197,1.0212,1.0214,0,0,0,1.0631,1.0629,1.0614,1.0597,1.0547,1.0455,1.0434,1.0387,1.0367,1.0308,1.0303,1.0198,1.0197,1.0212,1.0214,1.0193,0,0,0,1.0662,1.0627,1.0615,1.0569,1.0548,1.0466,1.0435,1.0371,1.0323,1.0305,1.0197,1.0197,1.0212,1.0214,1.0194,1.0181,1.0178,0,0,1.0632,1.0625,1.0595,1.0581,1.0508,1.0482,1.0409,1.0338,1.0308,1.0235,1.0232,1.0212,1.0214,1.0193,1.0153,1.0151,0,0,0,1.0594,1.0574,1.0549,1.0506,1.0453,1.0407,1.0346,1.0319,1.0257,1.0277,1.0198,1.0198,1.0185,1.0177,1.0176,1.0163,1.0195,1.0195,1.0195,1.0588,1.0553,1.0503,1.0454,1.0412,1.0349,1.0311,1.0265,1.024,1.0222,1.02,1.018,1.0173,1.0171,1.0158,1.019,1.019,1.019,1.019,1.0541,1.0507,1.0476,1.0417,1.0379,1.0328,1.0266,1.025,1.0195,1.0193,1.018,1.0181,1.017,1.0157,1.0191,1.0191,1.0191,1.0191,1.0191,1.0533,1.0511,1.0481,1.0415,1.0368,1.0318,1.0268,1.0234,1.0202,1.0189,1.0162,1.0162,1.0158,1.0179,1.0179,1.0179,1.0178,1.0178,1.0178,1.0537,1.0503,1.0467,1.0409,1.0377,1.033,1.0267,1.0234,1.0188,1.0167,1.0167,1.0144,1.0176,1.0185,1.0177,1.0177,1.0177,1.0178,1.0178,1.0503,1.0506,1.0449,1.0417,1.0346,1.0301,1.026,1.0195,1.0162,1.0138,1.0118,1.0147,1.0136,1.0137,1.0144,1.0126,1.0126,1.0126,1.0126,1.0497,1.0489,1.0424,1.0375,1.0323,1.028,1.0215,1.0166,1.0115,1.0092,1.0089,1.0096,1.0099,1.0086,1.0088,1.0094,1.0064,1.0063,1.0063,1.0474,1.0459,1.0412,1.0365,1.0306,1.0257,1.0195,1.0138,1.008,1.006,1.0073,1.0076,1.0086,1.0091,1.0072,1.0076,1.0087,0,0]}]]